TimeEDT,TemperatureF,Dew PointF,Humidity,Sea Level PressureIn,VisibilityMPH,Wind Direction,Wind SpeedMPH,Gust SpeedMPH,PrecipitationIn,Events,Conditions,WindDirDegrees,DateUTC
12:52 AM,69.1,68.0,96,29.95,7.0,Calm,Calm,-,N/A,,Clear,0,2013-09-12 04:52:00
1:52 AM,69.1,68.0,96,29.94,6.0,Calm,Calm,-,N/A,,Clear,0,2013-09-12 05:52:00
2:52 AM,69.1,66.9,93,29.94,10.0,Calm,Calm,-,N/A,,Clear,0,2013-09-12 06:52:00
3:50 AM,66.2,66.2,100,29.95,1.8,Calm,Calm,-,N/A,,Clear,0,2013-09-12 07:50:00
3:52 AM,66.9,66.0,97,29.94,1.5,Calm,Calm,-,N/A,,Clear,0,2013-09-12 07:52:00
4:05 AM,66.2,66.2,100,29.95,1.0,Calm,Calm,-,N/A,,Clear,0,2013-09-12 08:05:00
4:12 AM,66.2,66.2,100,29.94,0.8,Calm,Calm,-,N/A,,Clear,0,2013-09-12 08:12:00
4:29 AM,66.2,66.2,100,29.95,0.8,Calm,Calm,-,N/A,,Mist,0,2013-09-12 08:29:00
4:34 AM,66.2,66.2,100,29.95,1.2,Calm,Calm,-,N/A,,Partly Cloudy,0,2013-09-12 08:34:00
4:39 AM,66.2,66.2,100,29.95,2.0,Calm,Calm,-,N/A,,Partly Cloudy,0,2013-09-12 08:39:00
4:52 AM,66.0,66.0,100,29.94,2.0,Calm,Calm,-,N/A,,Scattered Clouds,0,2013-09-12 08:52:00
5:19 AM,66.2,64.4,94,29.94,4.0,Calm,Calm,-,N/A,,Mostly Cloudy,0,2013-09-12 09:19:00
5:32 AM,66.2,64.4,94,29.94,1.5,Calm,Calm,-,N/A,,Overcast,0,2013-09-12 09:32:00
5:35 AM,64.4,64.4,100,29.93,0.8,Calm,Calm,-,N/A,,Overcast,0,2013-09-12 09:35:00
5:42 AM,64.4,64.4,100,29.93,0.5,NNW,3.5,-,N/A,Fog,Fog,340,2013-09-12 09:42:00
5:52 AM,66.0,64.9,96,29.92,0.5,Calm,Calm,-,N/A,Fog,Fog,0,2013-09-12 09:52:00
6:52 AM,64.9,64.9,100,29.91,0.2,NNW,5.8,-,N/A,Fog,Fog,330,2013-09-12 10:52:00
7:07 AM,66.2,66.2,100,29.92,1.2,Calm,Calm,-,N/A,,Mostly Cloudy,0,2013-09-12 11:07:00
7:10 AM,66.2,66.2,100,29.92,2.0,Calm,Calm,-,N/A,,Mostly Cloudy,0,2013-09-12 11:10:00
7:18 AM,66.2,66.2,100,29.92,4.0,Calm,Calm,-,N/A,,Mostly Cloudy,0,2013-09-12 11:18:00
7:52 AM,68.0,66.9,96,29.91,6.0,NNW,3.5,-,N/A,,Scattered Clouds,330,2013-09-12 11:52:00
8:06 AM,69.8,66.2,88,29.91,6.0,NW,5.8,-,N/A,,Mostly Cloudy,320,2013-09-12 12:06:00
8:52 AM,70.0,68.0,93,29.89,6.0,Calm,Calm,-,N/A,,Overcast,0,2013-09-12 12:52:00
9:31 AM,71.6,69.8,94,29.89,5.0,SE,4.6,-,N/A,Thunderstorm,Overcast,140,2013-09-12 13:31:00
9:52 AM,71.1,69.1,93,29.88,5.0,South,3.5,-,N/A,Thunderstorm,Overcast,170,2013-09-12 13:52:00
10:10 AM,71.6,69.8,94,29.87,1.8,Calm,Calm,-,0.06,Rain-Thunderstorm,Thunderstorms and Rain,0,2013-09-12 14:10:00
10:18 AM,71.6,69.8,94,29.88,2.0,Calm,Calm,-,0.06,Rain-Thunderstorm,Light Thunderstorms and Rain,0,2013-09-12 14:18:00
10:25 AM,71.6,69.8,94,29.88,5.0,Calm,Calm,-,0.06,Thunderstorm,Overcast,0,2013-09-12 14:25:00
10:40 AM,73.4,69.8,88,29.87,4.0,Calm,Calm,-,0.06,Thunderstorm,Overcast,0,2013-09-12 14:40:00
10:52 AM,75.0,71.1,87,29.86,4.0,Calm,Calm,-,0.06,Thunderstorm,Overcast,0,2013-09-12 14:52:00
11:03 AM,75.2,71.6,89,29.86,4.0,Calm,Calm,-,N/A,,Mostly Cloudy,0,2013-09-12 15:03:00
11:11 AM,75.2,71.6,89,29.86,4.0,South,8.1,-,N/A,Thunderstorm,Haze,180,2013-09-12 15:11:00
11:40 AM,75.2,71.6,89,29.85,4.0,South,6.9,-,N/A,,Mostly Cloudy,170,2013-09-12 15:40:00
11:49 AM,77.0,71.6,83,29.85,4.0,South,9.2,-,N/A,Thunderstorm,Haze,170,2013-09-12 15:49:00
11:52 AM,77.0,72.0,84,29.84,5.0,South,8.1,-,N/A,Thunderstorm,Haze,180,2013-09-12 15:52:00
12:04 PM,78.8,71.6,78,29.84,5.0,South,10.4,-,N/A,,Haze,180,2013-09-12 16:04:00
12:15 PM,78.8,71.6,78,29.83,6.0,South,8.1,-,N/A,,Haze,190,2013-09-12 16:15:00
12:24 PM,78.8,71.6,78,29.83,6.0,South,9.2,-,N/A,,Haze,170,2013-09-12 16:24:00
12:31 PM,78.8,71.6,78,29.82,6.0,South,6.9,-,N/A,,Haze,180,2013-09-12 16:31:00
12:52 PM,80.1,73.0,79,29.81,6.0,South,10.4,-,0.00,,Haze,190,2013-09-12 16:52:00
1:02 PM,80.6,71.6,74,29.80,6.0,South,12.7,18.4,N/A,Thunderstorm,Haze,180,2013-09-12 17:02:00
1:36 PM,80.6,71.6,74,29.80,6.0,South,11.5,-,N/A,Thunderstorm,Unknown,190,2013-09-12 17:36:00
1:43 PM,80.6,71.6,74,29.79,6.0,South,8.1,-,N/A,Thunderstorm,Unknown,170,2013-09-12 17:43:00
1:52 PM,80.1,72.0,76,29.78,6.0,South,10.4,-,N/A,Thunderstorm,Unknown,180,2013-09-12 17:52:00
2:16 PM,82.4,71.6,70,29.76,6.0,South,17.3,21.9,N/A,Thunderstorm,Unknown,190,2013-09-12 18:16:00
2:52 PM,75.0,68.0,79,29.75,10.0,NNW,6.9,-,N/A,Thunderstorm,Thunderstorm,330,2013-09-12 18:52:00
3:04 PM,73.4,68.0,83,29.75,8.0,Variable,3.5,-,0.00,Rain-Thunderstorm,Light Thunderstorms and Rain,0,2013-09-12 19:04:00
3:22 PM,73.4,68.0,83,29.75,8.0,NW,3.5,-,0.00,Rain-Thunderstorm,Light Thunderstorms and Rain,320,2013-09-12 19:22:00
3:52 PM,72.0,69.1,91,29.75,8.0,Calm,Calm,-,0.06,Thunderstorm,Thunderstorm,0,2013-09-12 19:52:00
4:00 PM,71.6,69.8,94,29.74,5.0,SE,3.5,-,0.01,Rain,Light Rain,130,2013-09-12 20:00:00
4:52 PM,77.0,72.0,84,29.72,7.0,Variable,3.5,-,0.01,,Mostly Cloudy,0,2013-09-12 20:52:00
5:18 PM,75.2,71.6,89,29.72,6.0,North,6.9,-,N/A,Thunderstorm,Overcast,360,2013-09-12 21:18:00
5:33 PM,73.4,69.8,88,29.73,9.0,ENE,5.8,-,N/A,Thunderstorm,Overcast,60,2013-09-12 21:33:00
5:47 PM,71.6,68.0,88,29.73,10.0,ENE,4.6,-,N/A,,Overcast,70,2013-09-12 21:47:00
5:52 PM,72.0,68.0,87,29.73,10.0,NE,4.6,-,N/A,,Mostly Cloudy,40,2013-09-12 21:52:00
5:59 PM,71.6,68.0,88,29.73,10.0,Calm,Calm,-,N/A,,Overcast,0,2013-09-12 21:59:00
6:09 PM,71.6,68.0,88,29.72,10.0,East,3.5,-,N/A,,Mostly Cloudy,90,2013-09-12 22:09:00
6:40 PM,69.8,66.2,88,29.71,10.0,North,6.9,-,N/A,Thunderstorm,Mostly Cloudy,350,2013-09-12 22:40:00
6:52 PM,70.0,66.9,90,29.71,10.0,NNW,3.5,-,N/A,Thunderstorm,Overcast,340,2013-09-12 22:52:00
7:01 PM,69.8,66.2,88,29.72,10.0,NW,5.8,-,N/A,,Overcast,320,2013-09-12 23:01:00
7:11 PM,69.8,68.0,94,29.71,10.0,NNW,9.2,-,N/A,Thunderstorm,Thunderstorm,330,2013-09-12 23:11:00
7:22 PM,69.8,66.2,88,29.74,1.2,WNW,3.5,-,0.22,Rain-Thunderstorm,Heavy Thunderstorms and Rain,290,2013-09-12 23:22:00
7:25 PM,68.0,66.2,94,29.75,0.8,West,6.9,-,0.30,Rain-Thunderstorm,Heavy Thunderstorms and Rain,280,2013-09-12 23:25:00
7:32 PM,66.2,64.4,94,29.73,1.0,NNW,11.5,-,0.37,Rain-Thunderstorm,Heavy Thunderstorms and Rain,340,2013-09-12 23:32:00
7:34 PM,66.2,64.4,94,29.73,1.5,North,5.8,-,0.37,Rain-Thunderstorm,Thunderstorms and Rain,350,2013-09-12 23:34:00
7:37 PM,66.2,64.4,94,29.72,3.0,North,6.9,-,0.37,Rain-Thunderstorm,Light Thunderstorms and Rain,360,2013-09-12 23:37:00
7:52 PM,66.9,64.9,93,29.73,10.0,ESE,3.5,-,0.38,Rain-Thunderstorm,Light Rain,120,2013-09-12 23:52:00
8:18 PM,66.2,64.4,94,29.71,9.0,Calm,Calm,-,0.00,,Mostly Cloudy,0,2013-09-13 00:18:00
8:52 PM,66.0,64.9,96,29.72,8.0,WSW,4.6,-,0.00,,Overcast,240,2013-09-13 00:52:00
9:09 PM,66.2,64.4,94,29.72,9.0,Calm,Calm,-,0.00,Rain-Thunderstorm,Light Rain,0,2013-09-13 01:09:00
9:36 PM,66.2,66.2,100,29.71,6.0,Calm,Calm,-,0.01,Rain,Light Rain,0,2013-09-13 01:36:00
9:52 PM,66.0,64.9,96,29.73,5.0,South,8.1,-,0.03,Rain,Rain,190,2013-09-13 01:52:00
10:09 PM,66.2,66.2,100,29.72,4.0,South,5.8,-,0.06,Rain-Thunderstorm,Rain,190,2013-09-13 02:09:00
10:24 PM,66.2,66.2,100,29.71,4.0,SSE,4.6,-,0.12,Rain,Rain,160,2013-09-13 02:24:00
10:52 PM,66.9,64.9,93,29.68,6.0,SE,3.5,-,0.22,Rain,Light Rain,140,2013-09-13 02:52:00
11:44 PM,66.2,64.4,94,29.68,7.0,Calm,Calm,-,0.01,,Scattered Clouds,0,2013-09-13 03:44:00
11:52 PM,66.0,64.9,96,29.68,7.0,Calm,Calm,-,0.01,,Scattered Clouds,0,2013-09-13 03:52:00
11:57 PM,66.2,64.4,94,29.68,7.0,Calm,Calm,-,N/A,,Mostly Cloudy,0,2013-09-13 03:57:00